Tracking 27097 objects as of 29-Mar-2023
HD Live streaming from Space Station
objects crossing your sky now

DIDO 2

Track DIDO 2 now!
10-day predictions


NORAD ID: 42000
Int'l Code: 2017-008BE
Perigee: 460.9 km
Apogee: 467.9 km
Inclination: 97.2 °
Period: 93.7 minutes
Semi major axis: 6835 km
RCS: Unknown
Launch date: February 15, 2017
Source: Israel (ISRA)
Launch site: SRIHARIKOTA (SRI)
Your satellite tracking list
Your tracking list is empty




NASA's NSSDC Master Catalog

Two Line Element Set (TLE):
1 42000U 17008BE  23087.63639056  .00026792  00000-0  75906-3 0  9996
2 42000  97.2131 145.1377 0005100 332.4551  27.6422 15.36226602339559
Source of the keplerian elements: AFSPC